Location: Bismarck
(46.7731°N, 100.8200°W)
Time: 12:19:41
(UTC-05:00)

Amateur Radio Satellites - All Passes

Search period start: 27 March 2015 11:49
Search period end: 28 March 2015 11:49
Location: Bismarck, 46.7731°N, 100.8200°W

Satellite Date Start Highest point End Downlink Frequencies (MHz)
Time Altitude Azimuth
NANOSAT C BR1 27 Mar 11:53:28 11:57:42 90° 331° (NNW) 12:01:57 145.865
BUGSAT 1 27 Mar 11:54:07 11:58:16 68° 74° (ENE) 12:02:23 437.445
POLYITAN 1 27 Mar 11:55:29 11:59:43 84° 256° (WSW) 12:03:58 437.675
DELFI C3 27 Mar 11:57:08 12:01:14 66° 286° (WNW) 12:05:19 145.870
HUMSAT D 27 Mar 12:01:48 12:05:53 47° 99° (E) 12:10:02 437.325/437.525
SEEDS 27 Mar 12:02:39 12:05:47 19° 296° (WNW) 12:08:48 437.485
AAUSAT CUBESAT 2 27 Mar 12:03:18 12:06:47 24° 294° (WNW) 12:10:11 437.432
HO-68 27 Mar 12:04:37 12:11:10 38° 299° (WNW) 12:17:37 435.675
BEESAT 3 27 Mar 12:04:55 12:08:53 51° 122° (ESE) 12:12:56 437.485
ANTELSAT 27 Mar 12:07:48 12:11:44 35° 264° (W) 12:15:43 437.575/2403.000
Oscar 11 27 Mar 12:10:09 12:14:17 41° 290° (WNW) 12:18:22 145.826/435.025
UWE-3 27 Mar 12:13:30 12:17:47 57° 288° (WNW) 12:22:09 435.000/436.395/437.385
CUBEBUG 2 27 Mar 12:13:32 12:17:44 48° 289° (WNW) 12:22:02 437.445
FUNcube-1 27 Mar 12:15:35 12:19:54 67° 286° (WNW) 12:24:17 145.935
VELOX 1 27 Mar 12:16:45 12:20:58 42° 98° (E) 12:25:10 145.980
AISAT 27 Mar 12:20:18 12:24:35 48° 99° (E) 12:28:51 437.250
AIST 2 27 Mar 12:23:29 12:27:02 26° 116° (ESE) 12:30:41 435.215
CUBEBUG 1 27 Mar 12:24:19 12:27:52 25° 93° (E) 12:31:29 437.445
ZACube-1 27 Mar 12:27:37 12:31:49 50° 288° (WNW) 12:36:06 437.345
COMPASS 1 27 Mar 12:29:36 12:31:44 13° 299° (WNW) 12:33:41 437.405
QB50P1 27 Mar 12:34:48 12:38:39 33° 264° (W) 12:42:29 145.935-145.965
DUCHIFAT 1 27 Mar 12:38:09 12:41:56 31° 264° (W) 12:45:42 145.980
ESTCUBE 1 27 Mar 12:41:45 12:46:03 42° 98° (E) 12:50:20 437.505/2401.250
SPROUT 27 Mar 12:44:35 12:45:44 11° 86° (E) 12:47:07 437.525
QB50P2 27 Mar 12:49:17 12:52:45 24° 267° (W) 12:56:11 145.880/145.840
BEESAT 2 27 Mar 13:02:53 13:06:56 54° 311° (NW) 13:11:03 435.950
PHONESAT 2.4 27 Mar 13:06:23 13:08:24 14° 203° (SSW) 13:10:21 2401.200-2431.200
50 SAT 27 Mar 13:15:30 13:19:18 40° 289° (WNW) 13:23:06 437.505
UKube-1 27 Mar 13:16:07 13:19:41 24° 295° (WNW) 13:23:08 .
POPSAT HIP 1 27 Mar 13:20:34 13:22:30 12° 273° (W) 13:24:13 437.405
DX 1 27 Mar 13:23:24 13:26:41 21° 296° (WNW) 13:29:50 434.975-435.025
BUGSAT 1 27 Mar 13:32:25 13:34:16 12° 272° (W) 13:35:55 437.445
HUMSAT D 27 Mar 13:38:19 13:41:23 19° 296° (WNW) 13:44:24 437.325/437.525
Gurwin Techsat 1B 27 Mar 13:41:48 13:44:37 15° 57° (ENE) 13:47:39 435.225
Oscar 19 27 Mar 13:42:47 13:47:38 45° 69° (ENE) 13:52:32 437.125/150
BEESAT 3 27 Mar 13:43:47 13:47:13 24° 321° (NW) 13:50:38 437.485
VELOX 1 27 Mar 13:53:51 13:57:19 22° 296° (WNW) 14:00:42 145.980
YUBILEINY 27 Mar 13:56:58 14:04:05 30° 82° (E) 14:11:29 435.215
AISAT 27 Mar 13:57:37 14:00:55 20° 297° (WNW) 14:04:07 437.250
SWISSCUBE 27 Mar 14:00:01 14:01:28 11° 85° (E) 14:03:11 437.505
CUBEBUG 1 27 Mar 14:00:22 14:04:22 35° 291° (WNW) 14:08:17 437.445
AIST 2 27 Mar 14:01:24 14:05:29 42° 314° (NW) 14:09:37 435.215
BEESAT 27 Mar 14:03:25 14:04:51 11° 85° (E) 14:06:33 436.000
TISAT 1 27 Mar 14:16:19 14:20:33 85° 103° (ESE) 14:24:45 437.305
SPROUT 27 Mar 14:18:10 14:22:28 78° 286° (WNW) 14:26:45 437.525
ESTCUBE 1 27 Mar 14:19:05 14:22:44 24° 295° (WNW) 14:26:17 437.505/2401.250
JAS-2 27 Mar 14:26:30 14:26:43 10° 41° (NE) 14:27:19 435.910
ITAMSAT 1 27 Mar 14:42:56 14:48:01 55° 70° (ENE) 14:53:08 435.822/435.867
BEESAT 2 27 Mar 14:44:04 14:46:03 13° 333° (NNW) 14:47:57 435.950
ITUPSAT 1 27 Mar 14:46:45 14:50:56 29° 95° (E) 14:55:08 437.325
O/OREOS (USA 219) 27 Mar 14:54:39 14:59:09 54° 61° (ENE) 15:03:36 437.305
AO-7 27 Mar 15:00:36 15:07:09 28° 51° (NE) 15:13:53 29.400- 29.500
PCSat 27 Mar 15:02:01 15:03:50 12° 104° (ESE) 15:05:57 145.827
AIST 1 27 Mar 15:07:09 15:08:20 11° 61° (ENE) 15:09:43
Gurwin Techsat 1B 27 Mar 15:18:35 15:23:54 86° 76° (ENE) 15:29:17 435.225
Oscar 19 27 Mar 15:22:57 15:27:14 26° 267° (W) 15:31:26 437.125/150
SWISSCUBE 27 Mar 15:35:18 15:40:09 89° 268° (W) 15:44:56 437.505
BEESAT 27 Mar 15:38:41 15:43:31 90° 259° (W) 15:48:18 436.000
AIST 2 27 Mar 15:43:41 15:45:14 12° 336° (NNW) 15:46:42 435.215
YUBILEINY 27 Mar 15:51:32 16:00:19 68° 283° (WNW) 16:09:09 435.215
TISAT 1 27 Mar 15:54:11 15:55:47 12° 301° (WNW) 15:57:11 437.305
HORYU 2 27 Mar 15:59:20 16:03:38 53° 71° (ENE) 16:08:01 437.375
JAS-2 27 Mar 16:03:24 16:09:43 39° 62° (ENE) 16:16:41 435.910
KKS-1 27 Mar 16:22:33 16:26:54 53° 100° (E) 16:31:16 437.445
ITAMSAT 1 27 Mar 16:23:49 16:27:55 22° 269° (W) 16:31:54 435.822/435.867
ITUPSAT 1 27 Mar 16:24:29 16:28:54 36° 293° (WNW) 16:33:15 437.325
O/OREOS (USA 219) 27 Mar 16:35:02 16:38:12 18° 258° (WSW) 16:41:13 437.305
PCSat 27 Mar 16:41:02 16:46:27 77° 120° (ESE) 16:51:55 145.827
AIST 1 27 Mar 16:42:23 16:46:45 84° 262° (W) 16:51:03
AO-7 27 Mar 16:50:50 16:59:11 84° 252° (WSW) 17:07:33 29.400- 29.500
STARS 27 Mar 16:59:40 17:04:06 83° 103° (ESE) 17:08:31 437.465
Gurwin Techsat 1B 27 Mar 17:01:52 17:04:43 14° 274° (W) 17:07:18 435.225
SWISSCUBE 27 Mar 17:14:56 17:17:22 14° 302° (WNW) 17:19:36 437.505
BEESAT 27 Mar 17:18:17 17:20:44 14° 302° (WNW) 17:22:59 436.000
HORYU 2 27 Mar 17:37:39 17:40:41 17° 270° (W) 17:43:37 437.375
MOZHAYETS 4 27 Mar 17:42:22 17:46:09 24° 92° (E) 17:49:59
JAS-2 27 Mar 17:47:53 17:54:34 52° 264° (W) 18:01:57 435.910
YUBILEINY 27 Mar 17:53:43 17:59:18 17° 309° (NW) 18:04:30 435.215
AUBIESAT-1 27 Mar 17:57:19 17:58:44 11° 90° (E) 18:00:25 437.475
KKS-1 27 Mar 18:00:02 18:03:13 19° 297° (WNW) 18:06:19 437.445
M-CUBED/EXP-1 PRIME 27 Mar 18:18:12 18:21:46 21° 95° (E) 18:25:28 437.505
PCSat 27 Mar 18:26:05 18:30:30 24° 322° (NW) 18:34:52 145.827
Cubesat XI-IV 27 Mar 18:27:14 18:32:18 44° 68° (ENE) 18:37:24 437.490
CUTE-I 27 Mar 18:27:41 18:32:44 44° 68° (ENE) 18:37:50 437.470
STARS 27 Mar 18:37:54 18:40:00 13° 301° (WNW) 18:41:56 437.465
BEESAT 3 27 Mar 18:44:11 18:46:46 16° 32° (NNE) 18:49:23 437.485
AO-7 27 Mar 18:47:36 18:53:23 19° 274° (W) 18:58:45 29.400- 29.500
AIST 2 27 Mar 19:04:49 19:06:28 12° 24° (NNE) 19:08:11 435.215
HO-68 27 Mar 19:05:43 19:08:33 13° 44° (NE) 19:11:40 435.675
MOZHAYETS 4 27 Mar 19:19:10 19:23:33 41° 291° (WNW) 19:27:54
STRAND 1 27 Mar 19:22:46 19:24:49 13° 85° (E) 19:27:08 437.568
CUBESAT XI-V 27 Mar 19:23:43 19:27:18 22° 91° (E) 19:30:58 437.345
PRISM 27 Mar 19:29:00 19:31:51 18° 91° (E) 19:34:48 437.425
AUBIESAT-1 27 Mar 19:29:28 19:34:20 83° 107° (ESE) 19:39:09 437.475
BEESAT 2 27 Mar 19:41:57 19:45:45 33° 43° (NE) 19:49:31 435.950
M-CUBED/EXP-1 PRIME 27 Mar 19:52:13 19:57:00 57° 294° (WNW) 20:01:44 437.505
RS-15 27 Mar 19:54:20 20:04:05 42° 111° (ESE) 20:14:12 29.354- 29.394
Cubesat XI-IV 27 Mar 20:07:55 20:12:35 29° 266° (W) 20:17:12 437.490
CUTE-I 27 Mar 20:08:21 20:13:01 29° 266° (W) 20:17:37 437.470
GONETS M04 27 Mar 20:09:16 20:17:15 44° 88° (E) 20:25:25
BEESAT 3 27 Mar 20:21:21 20:25:31 81° 53° (NE) 20:29:36 437.485
BRITE-PL 27 Mar 20:24:43 20:28:44 30° 68° (ENE) 20:32:36 437.365/2234.400
CANX-2 27 Mar 20:35:28 20:38:44 22° 65° (ENE) 20:42:06 2200.000
AIST 2 27 Mar 20:42:02 20:46:10 45° 46° (NE) 20:50:14 435.215
SO-50 27 Mar 20:44:01 20:48:36 62° 123° (ESE) 20:53:22 436.795
HO-68 27 Mar 20:47:57 20:54:47 51° 65° (ENE) 21:01:43 435.675
CUTE 1.7 + AOD 2 27 Mar 20:49:20 20:52:55 28° 67° (ENE) 20:56:35 437.475
STRAND 1 27 Mar 20:59:42 21:04:52 89° 303° (WNW) 21:09:59 437.568
CUBESAT XI-V 27 Mar 21:00:34 21:05:01 44° 290° (WNW) 21:09:23 437.345
PRISM 27 Mar 21:03:35 21:07:38 46° 290° (WNW) 21:11:37 437.425
AUBIESAT-1 27 Mar 21:05:28 21:08:35 17° 306° (NW) 21:11:34 437.475
CINEMA 3 27 Mar 21:14:20 21:17:30 22° 66° (ENE) 21:20:44 145.822/145.860
DELFI C3 27 Mar 21:15:08 21:16:52 13° 61° (ENE) 21:18:46 145.870
DOVE 4 27 Mar 21:19:25 21:23:33 44° 71° (ENE) 21:27:34 437.250
BEESAT 2 27 Mar 21:20:09 21:23:54 33° 242° (WSW) 21:27:34 435.950
SEEDS 27 Mar 21:20:58 21:25:01 48° 72° (ENE) 21:29:08 437.485
GOMX 1 27 Mar 21:21:01 21:25:29 68° 74° (ENE) 21:29:46 467.674
AAUSAT CUBESAT 2 27 Mar 21:21:09 21:24:56 35° 69° (ENE) 21:28:48 437.432
M-CUBED/EXP-1 PRIME 27 Mar 21:29:55 21:31:00 11° 311° (NW) 21:31:52 437.505
Oscar 11 27 Mar 21:32:16 21:35:45 25° 66° (ENE) 21:39:19 145.826/435.025
UWE-3 27 Mar 21:38:46 21:41:34 18° 64° (ENE) 21:44:30 435.000/436.395/437.385
CUBEBUG 2 27 Mar 21:39:18 21:42:27 22° 66° (ENE) 21:45:42 437.445
FUNcube-1 27 Mar 21:40:07 21:42:31 16° 62° (ENE) 21:45:04 145.935
COMPASS 1 27 Mar 21:46:15 21:50:25 74° 75° (ENE) 21:54:39 437.405
ZACube-1 27 Mar 21:51:32 21:54:33 20° 65° (ENE) 21:57:39 437.345
BEESAT 3 27 Mar 22:01:18 22:03:01 12° 250° (WSW) 22:04:33 437.485
BRITE-PL 27 Mar 22:03:00 22:07:16 32° 264° (W) 22:11:15 437.365/2234.400
RS-15 27 Mar 22:05:09 22:16:01 67° 315° (NW) 22:27:11 29.354- 29.394
GONETS M04 27 Mar 22:05:49 22:14:08 47° 290° (WNW) 22:22:30
CANX-2 27 Mar 22:10:29 22:14:29 39° 263° (W) 22:18:30 2200.000
CUSAT 1 27 Mar 22:11:41 22:14:26 44° 99° (E) 22:16:58 437.405
AIST 2 27 Mar 22:21:05 22:24:33 24° 245° (WSW) 22:27:54 435.215
CUTE 1.7 + AOD 2 27 Mar 22:25:00 22:28:48 31° 265° (W) 22:32:36 437.475
SO-50 27 Mar 22:25:32 22:29:33 26° 324° (NW) 22:33:38 436.795
50 SAT 27 Mar 22:30:49 22:33:25 18° 64° (ENE) 22:36:08 437.505
HO-68 27 Mar 22:36:15 22:42:47 36° 265° (W) 22:49:17 435.675
UKube-1 27 Mar 22:37:12 22:41:21 47° 71° (ENE) 22:45:33 .
STRAND 1 27 Mar 22:40:32 22:43:25 15° 303° (WNW) 22:46:06 437.568
DX 1 27 Mar 22:44:42 22:49:00 59° 72° (ENE) 22:53:19 434.975-435.025
DELFI C3 27 Mar 22:47:28 22:51:32 73° 258° (WSW) 22:55:39 145.870
DANDE 27 Mar 22:49:14 22:52:19 65° 282° (WNW) 22:55:00 436.750
CINEMA 3 27 Mar 22:50:36 22:54:34 38° 263° (W) 22:58:28 145.822/145.860
HUMSAT D 27 Mar 22:56:35 23:00:31 47° 72° (ENE) 23:04:31 437.325/437.525
AAUSAT CUBESAT 2 27 Mar 22:57:17 23:00:42 23° 268° (W) 23:04:04 437.432
SEEDS 27 Mar 22:58:15 23:01:10 18° 270° (W) 23:03:58 437.485
DOVE 4 27 Mar 22:58:27 23:01:36 19° 269° (W) 23:04:34 437.250
GOMX 1 27 Mar 23:01:58 23:04:09 13° 272° (W) 23:06:05 467.674
Oscar 11 27 Mar 23:07:47 23:11:48 36° 264° (W) 23:15:49 145.826/435.025
UWE-3 27 Mar 23:13:50 23:17:51 47° 262° (W) 23:21:53 435.000/436.395/437.385
FUNcube-1 27 Mar 23:14:23 23:18:28 58° 260° (W) 23:22:35 145.935
CUBEBUG 2 27 Mar 23:15:06 23:19:00 38° 263° (W) 23:22:54 437.445
UNISAT 6 27 Mar 23:16:54 23:19:37 16° 89° (E) 23:22:31 437.425
VELOX 1 27 Mar 23:17:04 23:21:25 56° 72° (ENE) 23:25:48 145.980
AISAT 27 Mar 23:20:52 23:25:16 63° 73° (ENE) 23:29:41 437.250
CUBEBUG 1 27 Mar 23:23:14 23:27:05 31° 68° (ENE) 23:30:59 437.445
COMPASS 1 27 Mar 23:25:13 23:26:45 11° 274° (W) 23:28:03 437.405
ZACube-1 27 Mar 23:26:44 23:30:41 42° 262° (W) 23:34:40 437.345
TIGRISAT 27 Mar 23:27:40 23:30:54 20° 91° (E) 23:34:18 435.000
NANOSAT C BR1 27 Mar 23:37:41 23:39:13 12° 87° (E) 23:40:58 145.865
TISAT 1 27 Mar 23:38:56 23:40:13 11° 59° (ENE) 23:41:42 437.305
POLYITAN 1 27 Mar 23:39:51 23:41:47 13° 88° (E) 23:43:55 437.675
SPROUT 27 Mar 23:41:29 23:43:40 14° 61° (ENE) 23:46:01 437.525
PCSat 27 Mar 23:43:16 23:47:42 25° 38° (NE) 23:52:10 145.827
ESTCUBE 1 27 Mar 23:44:03 23:48:29 55° 72° (ENE) 23:52:58 437.505/2401.250
ISS 27 Mar 23:51:51 23:53:18 13° 135° (SE) 23:54:50 145.825
ANTELSAT 27 Mar 23:56:18 00:00:32 37° 97° (E) 00:04:51 437.575/2403.000
YUBILEINY 28 Mar 00:02:38 00:08:06 18° 52° (NE) 00:13:57 435.215
50 SAT 28 Mar 00:04:18 00:08:04 44° 261° (W) 00:11:52 437.505
SO-50 28 Mar 00:10:32 00:11:47 11° 348° (NNW) 00:12:59 436.795
GONETS M04 28 Mar 00:11:36 00:14:03 11° 317° (NW) 00:15:57
UKube-1 28 Mar 00:14:38 00:17:48 19° 269° (W) 00:20:52 .
QB50P1 28 Mar 00:16:55 00:20:40 31° 95° (E) 00:24:27 145.935-145.965
DUCHIFAT 1 28 Mar 00:19:50 00:23:37 32° 96° (E) 00:27:26 145.980
RS-15 28 Mar 00:21:12 00:30:56 33° 346° (NNW) 00:40:56 29.354- 29.394
DX 1 28 Mar 00:23:01 00:25:42 15° 271° (W) 00:28:15 434.975-435.025
QB50P2 28 Mar 00:30:53 00:34:57 44° 98° (E) 00:39:01 145.880/145.840
HUMSAT D 28 Mar 00:33:52 00:36:38 17° 270° (W) 00:39:16 437.325/437.525
UNISAT 6 28 Mar 00:52:22 00:56:52 63° 287° (WNW) 01:01:26 437.425
VELOX 1 28 Mar 00:55:26 00:58:24 17° 270° (W) 01:01:13 145.980
CUBEBUG 1 28 Mar 00:59:33 01:03:28 30° 265° (W) 01:07:19 437.445
AISAT 28 Mar 00:59:42 01:02:22 15° 271° (W) 01:04:50 437.250
POPSAT HIP 1 28 Mar 01:00:01 01:04:16 87° 103° (ESE) 01:08:30 437.405
TIGRISAT 28 Mar 01:03:34 01:07:57 50° 289° (WNW) 01:12:25 435.000
SWISSCUBE 28 Mar 01:08:35 01:12:02 20° 62° (ENE) 01:15:35 437.505
BUGSAT 1 28 Mar 01:09:00 01:13:04 80° 103° (ESE) 01:17:05 437.445
TISAT 1 28 Mar 01:11:13 01:15:27 88° 256° (WSW) 01:19:41 437.305
NANOSAT C BR1 28 Mar 01:11:26 01:15:39 72° 286° (WNW) 01:19:51 145.865
BEESAT 28 Mar 01:11:54 01:15:18 20° 62° (ENE) 01:18:51 436.000
POLYITAN 1 28 Mar 01:14:01 01:18:14 66° 286° (WNW) 01:22:26 437.675
SPROUT 28 Mar 01:14:59 01:19:17 71° 258° (WSW) 01:23:35 437.525
ESTCUBE 1 28 Mar 01:22:36 01:25:45 18° 270° (W) 01:28:47 437.505/2401.250
ISS 28 Mar 01:26:01 01:29:15 74° 153° (SSE) 01:32:31 145.825
PCSat 28 Mar 01:26:16 01:31:42 74° 241° (WSW) 01:37:06 145.827
ANTELSAT 28 Mar 01:33:22 01:37:12 27° 294° (WNW) 01:41:03 437.575/2403.000
QB50P1 28 Mar 01:52:52 01:56:31 28° 293° (WNW) 02:00:05 145.935-145.965
Oscar 19 28 Mar 01:53:12 01:55:14 13° 85° (E) 01:57:33 437.125/150
SO-50 28 Mar 01:53:23 01:54:34 11° 12° (NNE) 01:55:49 436.795
DUCHIFAT 1 28 Mar 01:55:49 01:59:23 26° 293° (WNW) 02:02:53 145.980
ITUPSAT 1 28 Mar 01:56:13 02:00:49 47° 70° (ENE) 02:05:28 437.325
YUBILEINY 28 Mar 01:58:06 02:06:58 72° 78° (ENE) 02:15:45 435.215
QB50P2 28 Mar 02:07:26 02:10:37 21° 296° (WNW) 02:13:43 145.880/145.840
STARS 28 Mar 02:25:45 02:27:49 13° 60° (ENE) 02:30:02 437.465
RS-15 28 Mar 02:37:16 02:47:18 36° 19° (NNE) 02:57:50 29.354- 29.394
POPSAT HIP 1 28 Mar 02:38:02 02:39:34 12° 301° (WNW) 02:40:56 437.405
SWISSCUBE 28 Mar 02:44:47 02:49:31 57° 259° (W) 02:54:18 437.505
BUGSAT 1 28 Mar 02:46:31 02:48:01 12° 300° (WNW) 02:49:20 437.445
BEESAT 28 Mar 02:48:04 02:52:48 58° 259° (W) 02:57:34 436.000
ITAMSAT 1 28 Mar 02:54:16 02:57:07 15° 87° (E) 03:00:10 435.822/435.867
ISS 28 Mar 03:02:47 03:05:51 37° 350° (N) 03:08:55 145.825
PCSat 28 Mar 03:12:34 03:14:18 11° 257° (WSW) 03:15:42 145.827
KKS-1 28 Mar 03:23:24 03:27:48 69° 74° (ENE) 03:32:15 437.445
Oscar 19 28 Mar 03:30:14 03:35:27 89° 119° (ESE) 03:40:39 437.125/150
Gurwin Techsat 1B 28 Mar 03:32:19 03:36:48 28° 93° (E) 03:41:21 435.225
SO-50 28 Mar 03:32:43 03:36:50 26° 36° (NE) 03:41:00 436.795
ITUPSAT 1 28 Mar 03:35:09 03:38:59 23° 268° (W) 03:42:45 437.325
YUBILEINY 28 Mar 03:55:54 04:03:06 28° 279° (W) 04:10:01 435.215
STARS 28 Mar 03:59:21 04:03:44 79° 257° (WSW) 04:08:09 437.465
ITAMSAT 1 28 Mar 04:32:07 04:37:20 78° 287° (WNW) 04:42:30 435.822/435.867
ISS 28 Mar 04:39:40 04:42:44 37° 10° (N) 04:45:46 145.825
MOZHAYETS 4 28 Mar 04:47:03 04:51:08 32° 67° (ENE) 04:55:18
AUBIESAT-1 28 Mar 04:47:06 04:50:12 21° 56° (ENE) 04:53:34 437.475
AO-7 28 Mar 04:49:48 04:56:30 28° 91° (E) 05:03:26 29.400- 29.500
RS-15 28 Mar 04:50:30 05:01:56 75° 49° (NE) 05:13:54 29.354- 29.394
JAS-2 28 Mar 04:54:39 05:01:06 28° 87° (E) 05:07:21 435.910
KKS-1 28 Mar 05:02:41 05:05:01 14° 272° (W) 05:07:09 437.445
M-CUBED/EXP-1 PRIME 28 Mar 05:09:20 05:13:04 36° 62° (ENE) 05:17:08 437.505
O/OREOS (USA 219) 28 Mar 05:09:51 05:14:02 36° 107° (ESE) 05:18:16 437.305
Oscar 19 28 Mar 05:11:08 05:14:10 15° 302° (WNW) 05:17:00 437.125/150
Gurwin Techsat 1B 28 Mar 05:11:56 05:17:00 45° 292° (WNW) 05:22:01 435.225
SO-50 28 Mar 05:12:54 05:17:51 69° 237° (WSW) 05:22:44 436.795
AIST 1 28 Mar 05:14:37 05:18:52 49° 94° (E) 05:23:09
HORYU 2 28 Mar 05:24:08 05:28:39 74° 103° (ESE) 05:33:09 437.375
ITAMSAT 1 28 Mar 06:13:35 06:16:05 13° 305° (NW) 06:18:22 435.822/435.867
GONETS M04 28 Mar 06:15:30 06:22:33 27° 60° (ENE) 06:29:50
ISS 28 Mar 06:16:04 06:19:18 69° 211° (SSW) 06:22:31 145.825
AUBIESAT-1 28 Mar 06:20:48 06:24:42 48° 256° (WSW) 06:28:57 437.475
PRISM 28 Mar 06:22:10 06:25:19 21° 64° (ENE) 06:28:34 437.425
MOZHAYETS 4 28 Mar 06:24:15 06:28:22 31° 266° (W) 06:32:30
CUBESAT XI-V 28 Mar 06:29:47 06:33:52 31° 67° (ENE) 06:38:02 437.345
JAS-2 28 Mar 06:39:00 06:46:50 70° 289° (WNW) 06:54:08 435.910
STRAND 1 28 Mar 06:40:33 06:44:44 27° 63° (ENE) 06:49:01 437.568
AO-7 28 Mar 06:41:52 06:50:10 75° 292° (WNW) 06:58:25 29.400- 29.500
Cubesat XI-IV 28 Mar 06:43:15 06:45:37 13° 85° (E) 06:48:16 437.490
CUTE-I 28 Mar 06:43:33 06:45:53 13° 85° (E) 06:48:29 437.470
M-CUBED/EXP-1 PRIME 28 Mar 06:44:43 06:48:06 25° 263° (W) 06:51:40 437.505
O/OREOS (USA 219) 28 Mar 06:49:26 06:53:32 30° 306° (NW) 06:57:35 437.305
AIST 1 28 Mar 06:53:45 06:56:53 18° 294° (WNW) 06:59:55
HORYU 2 28 Mar 07:02:10 07:04:48 15° 300° (WNW) 07:07:17 437.375
RS-15 28 Mar 07:03:29 07:13:43 38° 251° (WSW) 07:24:03 29.354- 29.394
VERMONT LUNAR 28 Mar 07:06:34 07:07:57 12° 156° (SSE) 07:09:25 437.305
PHONESAT 2.4 28 Mar 07:35:55 07:36:16 10° 153° (SSE) 07:36:43 2401.200-2431.200
ISS 28 Mar 07:54:01 07:55:14 11° 226° (SW) 07:56:19 145.825
PRISM 28 Mar 07:56:33 08:00:34 42° 261° (W) 08:04:37 437.425
CUBESAT XI-V 28 Mar 08:06:59 08:11:18 33° 265° (W) 08:15:33 437.345
GONETS M04 28 Mar 08:11:43 08:20:34 80° 263° (W) 08:29:24
STRAND 1 28 Mar 08:18:46 08:23:44 47° 261° (W) 08:28:43 437.568
Cubesat XI-IV 28 Mar 08:21:13 08:26:36 90° 320° (NW) 08:31:56 437.490
CUTE-I 28 Mar 08:21:28 08:26:50 90° 31° (NNE) 08:32:10 437.470
JAS-2 28 Mar 08:25:25 08:30:36 19° 309° (NW) 08:35:23 435.910
AO-7 28 Mar 08:35:54 08:41:48 21° 314° (NW) 08:47:26 29.400- 29.500
VERMONT LUNAR 28 Mar 08:42:13 08:45:03 25° 172° (S) 08:47:54 437.305
CUSAT 1 28 Mar 08:42:53 08:46:42 51° 77° (ENE) 08:51:46 437.405
PHONESAT 2.4 28 Mar 09:11:01 09:13:55 24° 168° (SSE) 09:16:52 2401.200-2431.200
GOMX 1 28 Mar 09:20:48 09:23:03 14° 89° (E) 09:25:32 467.674
DANDE 28 Mar 09:23:44 09:27:24 81° 261° (W) 09:32:20 436.750
COMPASS 1 28 Mar 09:30:14 09:30:28 10° 85° (E) 09:30:57 437.405
CANX-2 28 Mar 09:52:59 09:56:44 28° 94° (E) 10:00:30 2200.000
HO-68 28 Mar 09:59:51 10:06:31 40° 96° (E) 10:13:13 435.675
Cubesat XI-IV 28 Mar 10:02:51 10:06:02 16° 303° (WNW) 10:09:02 437.490
CUTE-I 28 Mar 10:03:04 10:06:16 16° 303° (WNW) 10:09:16 437.470
BRITE-PL 28 Mar 10:03:52 10:08:00 58° 101° (E) 10:12:14 437.365/2234.400
CUTE 1.7 + AOD 2 28 Mar 10:06:59 10:10:58 36° 96° (E) 10:14:58 437.475
GONETS M04 28 Mar 10:10:32 10:16:09 18° 284° (WNW) 10:21:20
UNISAT 6 28 Mar 10:19:09 10:22:10 19° 63° (ENE) 10:25:18 437.425
VERMONT LUNAR 28 Mar 10:19:27 10:22:18 25° 188° (S) 10:25:07 437.305
POPSAT HIP 1 28 Mar 10:23:01 10:24:26 12° 60° (ENE) 10:26:01 437.405
DELFI C3 28 Mar 10:26:04 10:27:56 13° 88° (E) 10:30:00 145.870
CUSAT 1 28 Mar 10:26:44 10:29:27 16° 266° (W) 10:32:25 437.405
TIGRISAT 28 Mar 10:29:39 10:32:59 23° 65° (ENE) 10:36:28 435.000
NANOSAT C BR1 28 Mar 10:33:14 10:35:31 15° 61° (ENE) 10:37:56 145.865
POLYITAN 1 28 Mar 10:35:59 10:38:29 16° 62° (ENE) 10:41:07 437.675
AAUSAT CUBESAT 2 28 Mar 10:36:38 10:40:42 44° 98° (E) 10:44:46 437.432
SEEDS 28 Mar 10:38:05 10:42:21 65° 101° (E) 10:46:37 437.485
CINEMA 3 28 Mar 10:41:51 10:45:52 36° 97° (E) 10:50:05 145.822/145.860
PHONESAT 2.4 28 Mar 10:48:41 10:51:47 28° 185° (S) 10:54:53 2401.200-2431.200
Oscar 11 28 Mar 10:52:04 10:56:00 32° 95° (E) 10:59:56 145.826/435.025
DOVE 4 28 Mar 10:52:25 10:56:43 85° 104° (ESE) 11:01:11 437.250
GOMX 1 28 Mar 10:57:29 11:01:39 59° 286° (WNW) 11:05:58 467.674
ANTELSAT 28 Mar 10:58:23 11:02:26 45° 71° (ENE) 11:06:36 437.575/2403.000
FUNcube-1 28 Mar 11:00:14 11:03:33 21° 92° (E) 11:07:01 145.935
UWE-3 28 Mar 11:00:42 11:04:24 27° 94° (E) 11:08:14 435.000/436.395/437.385
COMPASS 1 28 Mar 11:02:34 11:06:52 85° 285° (WNW) 11:11:07 437.405
CUBEBUG 2 28 Mar 11:02:45 11:06:44 33° 96° (E) 11:10:50 437.445
ZACube-1 28 Mar 11:12:16 11:16:03 28° 94° (E) 11:19:56 437.345
QB50P1 28 Mar 11:12:32 11:16:20 34° 69° (ENE) 11:20:12 145.935-145.965
DUCHIFAT 1 28 Mar 11:15:09 11:18:58 35° 69° (ENE) 11:22:50 145.980
BEESAT 2 28 Mar 11:17:16 11:20:28 22° 115° (ESE) 11:23:46 435.950
QB50P2 28 Mar 11:26:36 11:30:40 48° 71° (ENE) 11:34:46 145.880/145.840
CANX-2 28 Mar 11:28:51 11:32:40 31° 292° (WNW) 11:36:27 2200.000
50 SAT 28 Mar 11:39:56 11:42:44 18° 91° (E) 11:45:39 437.505
BRITE-PL 28 Mar 11:43:41 11:46:13 15° 297° (WNW) 11:48:37 437.365/2234.400
